Zurück zum Katalog

BREEZE-M DEB

LostHEO
NORAD 39997·DEBRIS·🇷🇺 Russia

Gestartet Mar 14, 2008 von Baikonur Cosmodrome

Loading…

Nächste Überflüge (nächste 24 Stunden)

TLE

VeraltetSource: Space-Track

Epoche: Oct 23, 2013, 23:20 UTC

1 39997U 08011DW  13296.97242389  .00000969  00000-0  20000-1 0  9999
2 39997  49.8740 225.8006 6731970 198.3427 112.8608  2.72051466778349

Verfolge BREEZE-M DEB in Echtzeit mit AllMySat

Download on the App Store